Weather History for Oslo Airport, Norway

Change the Weather History Date:

Sunday, July 7, 2013

  Actual Average Record
Temperature  
Mean Temperature 64 °F -  
Max Temperature 77 °F 68 °F 82 °F (2001)
Min Temperature 50 °F 51 °F 46 °F (1996)
Degree Days  
Heating Degree Days 2    
Growing Degree Days 14 (Base 50)    
Moisture  
Dew Point 47 °F    
Average Humidity 57    
Maximum Humidity 94    
Minimum Humidity 16    
Precipitation  
Precipitation 0.01 in 0.11 in - ()
Sea Level Pressure  
Sea Level Pressure 30.31 in    
Wind  
Wind Speed 6 mph ()    
Max Wind Speed 12 mph    
Max Gust Speed -    
Visibility 6.2 miles    
Events      
Averages and records for this station are not official NWS values.
T = Trace of Precipitation, MM = Missing Value Source: Averaged Metar Reports

Daily Weather History Graph

Daily Weather History Graph

Search for Another Location

Airport:

Trip Planner

Search our weather history database for the weather conditions in past years. The results will help you decide how hot, cold, wet, or windy it might be!

Date:

Astronomy

Jul. 07, 2013 Rise Set
Actual Time 4:03 AM CEST 10:36 PM CEST
Civil Twilight 2:30 AM CEST 12:08 AM CEST
Nautical Twilight Sun does not rise Sun does not rise
Astronomical Twilight Sun does not rise Sun does not rise
Moon 3:47 AM CEST (7/7) 9:21 PM CEST (7/7)
Length of Visible Light 21h 38m
Length of Day
18h 33m
Waning Crescent, 1% of the Moon is Illuminated
Jul 7
Waning Crescent
Jul 8
New
Jul 16
First Quarter
Jul 22
Full
Jul 29
Last Quarter

Hourly Weather History & Observations

Time (CEST) Temp. Dew Point Humidity Pressure Visibility Wind Dir Wind Speed Gust Speed Precip Events Conditions
12:20 AM 55.4 °F 46.4 °F 72% 30.36 in - SSW 8.1 mph - N/A   Clear
12:50 AM 55.4 °F 46.4 °F 72% 30.36 in - SSW 6.9 mph - N/A   Clear
1:20 AM 53.6 °F 46.4 °F 77% 30.33 in - South 5.8 mph - N/A   Clear
1:50 AM 53.6 °F 46.4 °F 77% 30.33 in - South 8.1 mph - N/A   Clear
2:00 AM 54 °F 46 °F 65%  in 44 mi South 6.7 mph - -   Partly Cloudy
2:20 AM 53.6 °F 46.4 °F 77% 30.33 in - South 5.8 mph - N/A   Clear
2:50 AM 53.6 °F 46.4 °F 77% 30.33 in - South 4.6 mph - N/A   Clear
3:20 AM 53.6 °F 46.4 °F 77% 30.33 in - Calm Calm - N/A   Clear
3:50 AM 51.8 °F 46.4 °F 82% 30.33 in - SSW 3.5 mph - N/A   Clear
4:20 AM 50.0 °F 46.4 °F 87% 30.33 in - Calm Calm - N/A   Clear
4:50 AM 50.0 °F 46.4 °F 87% 30.33 in - Calm Calm - N/A   Clear
5:20 AM 50.0 °F 46.4 °F 87% 30.33 in - NNE 2.3 mph - N/A   Clear
5:50 AM 51.8 °F 48.2 °F 88% 30.33 in - Variable 1.2 mph - N/A   Clear
6:20 AM 51.8 °F 50.0 °F 94% 30.33 in 6.2 mi SSW 4.6 mph - N/A   Unknown
6:50 AM 53.6 °F 50.0 °F 88% 30.33 in - SSW 4.6 mph - N/A   Clear
7:20 AM 55.4 °F 51.8 °F 88% 30.33 in 6.2 mi SSW 9.2 mph - N/A   Partly Cloudy
7:50 AM 57.2 °F 51.8 °F 82% 30.33 in 6.2 mi South 8.1 mph - N/A   Partly Cloudy
8:00 AM 57 °F 53 °F 84%  in 31 mi SSW 6.7 mph - -   Partly Cloudy
8:20 AM 59.0 °F 53.6 °F 82% 30.33 in 6.2 mi SSW 5.8 mph - N/A   Partly Cloudy
8:50 AM 60.8 °F 53.6 °F 77% 30.30 in 6.2 mi South 6.9 mph - N/A   Partly Cloudy
9:20 AM 62.6 °F 55.4 °F 77% 30.33 in - SSE 6.9 mph - N/A   Clear
9:50 AM 62.6 °F 55.4 °F 77% 30.30 in 6.2 mi SSE 6.9 mph - N/A   Partly Cloudy
10:20 AM 66.2 °F 57.2 °F 73% 30.30 in - SSE 6.9 mph - N/A   Clear
10:50 AM 68.0 °F 55.4 °F 64% 30.30 in - South 5.8 mph - N/A   Clear
11:20 AM 69.8 °F 57.2 °F 64% 30.30 in - SSE 6.9 mph - N/A   Clear
11:50 AM 69.8 °F 55.4 °F 60% 30.30 in - South 6.9 mph - N/A   Clear
12:20 PM 69.8 °F 55.4 °F 60% 30.30 in - SSW 3.5 mph - N/A   Clear
12:50 PM 71.6 °F 53.6 °F 53% 30.30 in - Variable 3.5 mph - N/A   Clear
1:20 PM 73.4 °F 50.0 °F 44% 30.30 in - WSW 5.8 mph - N/A   Clear
1:50 PM 75.2 °F 50.0 °F 41% 30.30 in - WSW 4.6 mph - N/A   Clear
2:00 PM 73 °F 53 °F 39%  in 31 mi South 6.7 mph - -   Partly Cloudy
2:20 PM 75.2 °F 51.8 °F 44% 30.30 in - SW 6.9 mph - N/A   Clear
2:50 PM 75.2 °F 51.8 °F 44% 30.30 in - WSW 8.1 mph - N/A   Clear
3:20 PM 75.2 °F 55.4 °F 50% 30.30 in - SSW 11.5 mph - N/A   Clear
3:50 PM 75.2 °F 51.8 °F 44% 30.27 in - WSW 9.2 mph - N/A   Clear
4:20 PM 75.2 °F 53.6 °F 47% 30.27 in - WSW 8.1 mph - N/A   Clear
4:50 PM 75.2 °F 51.8 °F 44% 30.27 in - WSW 10.4 mph - N/A   Clear
5:20 PM 77.0 °F 50.0 °F 39% 30.27 in - WSW 11.5 mph - N/A   Clear
5:50 PM 77.0 °F 48.2 °F 36% 30.27 in - WSW 9.2 mph - N/A   Clear
6:20 PM 77.0 °F 44.6 °F 32% 30.27 in - WNW 8.1 mph - N/A   Clear
6:50 PM 77.0 °F 39.2 °F 26% 30.27 in - West 8.1 mph - N/A   Clear
7:20 PM 75.2 °F 39.2 °F 27% 30.27 in - WSW 8.1 mph - N/A   Clear
7:50 PM 75.2 °F 39.2 °F 27% 30.27 in - West 8.1 mph - N/A   Clear
8:00 PM 75 °F 38 °F 16%  in 44 mi West 8.9 mph - -   Partly Cloudy
8:20 PM 73.4 °F 32.0 °F 22% 30.27 in - West 5.8 mph - N/A   Clear
8:50 PM 73.4 °F 33.8 °F 23% 30.27 in - West 6.9 mph - N/A   Clear
9:20 PM 71.6 °F 33.8 °F 25% 30.27 in - West 5.8 mph - N/A   Clear
9:50 PM 68.0 °F 33.8 °F 28% 30.30 in - WNW 4.6 mph - N/A   Clear
10:20 PM 66.2 °F 35.6 °F 32% 30.30 in - NW 4.6 mph - N/A   Clear
10:50 PM 64.4 °F 35.6 °F 34% 30.30 in - North 4.6 mph - N/A   Clear
11:20 PM 62.6 °F 32.0 °F 32% 30.33 in - North 3.5 mph - N/A   Clear
11:50 PM 62.6 °F 30.2 °F 30% 30.33 in - North 8.1 mph - N/A   Clear